Location: Reutlingen
(48.4911°N, 9.2587°E)
Time: 06:27:48
(UTC+01:00)

ISS - Pass Details

Date: 11 November 2017
Orbit: 402 x 407 km, 51.6° (Epoch: 23 November)

Event Time Altitude Azimuth Distance (km) Brightness Sun altitude
Exits shadow 05:09:39 40° 44° (NE) 614 -2.7 -22.4°
Drops below altitude 10° 05:12:09 10° 81° (E) 1,457 0.1 -22.0°
Sets 05:14:16 0° 88° (E) 2,316 1.5 -21.6°
